When you browse on this site, cookies collect data to enhance your experience and personalize the content and advertising you see.
Visit our Privacy Policy to learn more. By continuing to use the site, you agree to this use of cookies and data.
  • Em Portugal
  • Lista de países
  • Para 7 dias
  • Temperatura da água
  • Mapas de satélite
  • Mapa do tempo
  • Widgets de tempo
  • user-avatar
    Iniciar Sessão

    Previsão horária em Byala

    Hoje, 20 Janeiro, Domingo

    Tempo Temperatura Precipitação Vento Pressão Humidade
    00:00 +3°C° 0.1 mm 5 m/s 755 mmHg 91%
    01:00 +3°C° 0.1 mm 5 m/s 755 mmHg 91%
    02:00 +3°C° 0 mm 5 m/s 755 mmHg 91%
    03:00 +5°C° 0.1 mm 5 m/s 755 mmHg 92%
    04:00 +5°C° 0.1 mm 5 m/s 754 mmHg 93%
    05:00 +5°C° 0.1 mm 4 m/s 754 mmHg 94%
    06:00 +5°C° 0.1 mm 5 m/s 754 mmHg 95%
    07:00 +5°C° 0.1 mm 5 m/s 754 mmHg 95%
    08:00 +5°C° 0 mm 4 m/s 754 mmHg 95%
    09:00 +6°C° 0 mm 4 m/s 753 mmHg 94%
    10:00 +6°C° 0 mm 4 m/s 753 mmHg 93%
    11:00 +7°C° 0 mm 4 m/s 753 mmHg 92%
    12:00 +8°C° 0 mm 4 m/s 753 mmHg 89%
    13:00 +8°C° 0 mm 4 m/s 752 mmHg 86%
    14:00 +10°C° 0 mm 3 m/s 752 mmHg 84%
    15:00 +9°C° 0.1 mm 3 m/s 751 mmHg 86%
    16:00 +9°C° 0.1 mm 3 m/s 751 mmHg 89%
    17:00 +9°C° 0.1 mm 3 m/s 751 mmHg 92%
    18:00 +8°C° 0 mm 3 m/s 750 mmHg 92%
    19:00 +8°C° 0 mm 3 m/s 750 mmHg 92%
    20:00 +7°C° 0 mm 4 m/s 750 mmHg 91%
    21:00 +7°C° 0.3 mm 4 m/s 750 mmHg 92%
    22:00 +8°C° 0.3 mm 3 m/s 750 mmHg 93%
    23:00 +8°C° 0.3 mm 3 m/s 750 mmHg 94%

    Amanhã, 21 Janeiro, Segunda-feira

    Tempo Temperatura Precipitação Vento Pressão Humidade
    00:00 +8°C° 0.1 mm 3 m/s 750 mmHg 94%
    01:00 +7°C° 0.1 mm 3 m/s 750 mmHg 93%
    02:00 +7°C° 0.1 mm 3 m/s 751 mmHg 93%
    03:00 +5°C° 0 mm 4 m/s 751 mmHg 91%
    04:00 +4°C° 0 mm 4 m/s 751 mmHg 90%
    05:00 +2°C° 0 mm 5 m/s 751 mmHg 88%
    06:00 +2°C° 0 mm 5 m/s 751 mmHg 87%
    07:00 +2°C° 0 mm 5 m/s 751 mmHg 86%
    08:00 +1°C° 0 mm 5 m/s 752 mmHg 85%
    09:00 +2°C° 0 mm 6 m/s 752 mmHg 81%
    10:00 +3°C° 0 mm 6 m/s 753 mmHg 76%
    11:00 +4°C° 0 mm 6 m/s 753 mmHg 72%
    12:00 +5°C° 0 mm 5 m/s 753 mmHg 71%
    13:00 +5°C° 0 mm 5 m/s 753 mmHg 69%
    14:00 +6°C° 0 mm 4 m/s 754 mmHg 68%
    15:00 +5°C° 0 mm 4 m/s 754 mmHg 71%
    16:00 +4°C° 0 mm 4 m/s 754 mmHg 73%
    17:00 +4°C° 0 mm 4 m/s 755 mmHg 75%
    18:00 +3°C° 0 mm 4 m/s 755 mmHg 77%
    19:00 +1°C° 0 mm 4 m/s 755 mmHg 78%
    20:00 +1°C° 0 mm 4 m/s 756 mmHg 79%
    21:00 0°C° 0 mm 4 m/s 756 mmHg 80%
    22:00 0°C° 0 mm 4 m/s 756 mmHg 81%
    23:00 +1°C° 0 mm 3 m/s 756 mmHg 82%

    Depois de amanhã, 22 Janeiro, Terça-feira

    Tempo Temperatura Precipitação Vento Pressão Humidade
    00:00 +1°C° 0 mm 3 m/s 756 mmHg 83%
    01:00 0°C° 0 mm 3 m/s 756 mmHg 84%
    02:00 0°C° 0 mm 3 m/s 756 mmHg 85%
    03:00 +1°C° 0 mm 3 m/s 756 mmHg 85%
    04:00 +1°C° 0 mm 3 m/s 756 mmHg 86%
    05:00 +1°C° 0 mm 3 m/s 755 mmHg 87%
    06:00 +1°C° 0 mm 3 m/s 755 mmHg 86%
    07:00 +1°C° 0 mm 3 m/s 755 mmHg 86%
    08:00 +2°C° 0 mm 3 m/s 755 mmHg 86%
    09:00 +2°C° 0 mm 3 m/s 755 mmHg 84%
    10:00 +3°C° 0 mm 3 m/s 755 mmHg 82%
    11:00 +3°C° 0 mm 4 m/s 755 mmHg 80%
    12:00 +3°C° 0 mm 4 m/s 754 mmHg 80%
    13:00 +4°C° 0 mm 4 m/s 754 mmHg 80%
    14:00 +4°C° 0 mm 4 m/s 753 mmHg 80%
    15:00 +4°C° 0 mm 4 m/s 753 mmHg 81%
    16:00 +4°C° 0 mm 4 m/s 752 mmHg 83%
    17:00 +3°C° 0 mm 4 m/s 752 mmHg 84%
    18:00 +4°C° 0.1 mm 4 m/s 752 mmHg 85%
    19:00 +3°C° 0.1 mm 5 m/s 751 mmHg 86%
    20:00 +3°C° 0.1 mm 5 m/s 751 mmHg 87%
    21:00 +3°C° 0 mm 5 m/s 751 mmHg 88%
    22:00 +3°C° 0 mm 5 m/s 750 mmHg 89%
    23:00 +4°C° 0 mm 6 m/s 750 mmHg 89%

    23 Janeiro, Quarta-feira

    Tempo Temperatura Precipitação Vento Pressão Humidade
    00:00 +4°C° 0 mm 6 m/s 749 mmHg 90%
    01:00 +4°C° 0 mm 6 m/s 749 mmHg 90%
    02:00 +4°C° 0 mm 6 m/s 748 mmHg 91%
    03:00 +4°C° 0.1 mm 6 m/s 748 mmHg 91%
    04:00 +4°C° 0.1 mm 6 m/s 747 mmHg 92%
    05:00 +5°C° 0.1 mm 7 m/s 746 mmHg 93%
    06:00 +5°C° 2 mm 7 m/s 746 mmHg 93%
    07:00 +5°C° 2 mm 7 m/s 746 mmHg 93%
    08:00 +5°C° 2 mm 7 m/s 745 mmHg 93%
    09:00 +6°C° 0.2 mm 7 m/s 745 mmHg 90%
    10:00 +6°C° 0.2 mm 7 m/s 745 mmHg 86%
    11:00 +8°C° 0.2 mm 7 m/s 745 mmHg 83%
    12:00 +9°C° 0 mm 7 m/s 744 mmHg 80%
    13:00 +10°C° 0 mm 7 m/s 744 mmHg 78%
    14:00 +10°C° 0 mm 7 m/s 743 mmHg 76%
    15:00 +10°C° 0 mm 7 m/s 743 mmHg 76%
    16:00 +10°C° 0 mm 6 m/s 743 mmHg 76%
    17:00 +10°C° 0 mm 6 m/s 743 mmHg 77%
    18:00 +10°C° 0 mm 6 m/s 743 mmHg 78%
    19:00 +9°C° 0 mm 7 m/s 744 mmHg 80%
    20:00 +9°C° 0 mm 7 m/s 744 mmHg 82%
    21:00 +9°C° 0 mm 7 m/s 744 mmHg 84%
    22:00 +9°C° 0 mm 7 m/s 745 mmHg 86%
    23:00 +8°C° 0 mm 6 m/s 745 mmHg 88%

    24 Janeiro, Quinta-feira

    Tempo Temperatura Precipitação Vento Pressão Humidade
    00:00 +8°C° 0 mm 6 m/s 745 mmHg 87%
    01:00 +8°C° 0 mm 6 m/s 745 mmHg 87%
    02:00 +8°C° 0 mm 6 m/s 744 mmHg 87%
    03:00 +7°C° 0 mm 6 m/s 744 mmHg 89%
    04:00 +7°C° 0 mm 6 m/s 744 mmHg 92%
    05:00 +7°C° 0 mm 6 m/s 744 mmHg 94%
    06:00 +7°C° 0.1 mm 6 m/s 744 mmHg 94%
    07:00 +7°C° 0.1 mm 6 m/s 744 mmHg 95%
    08:00 +7°C° 0.1 mm 5 m/s 744 mmHg 95%
    09:00 +8°C° 0.1 mm 5 m/s 744 mmHg 93%
    10:00 +8°C° 0.1 mm 5 m/s 744 mmHg 91%
    11:00 +9°C° 0.1 mm 5 m/s 743 mmHg 89%
    12:00 +9°C° 0 mm 5 m/s 743 mmHg 85%
    13:00 +9°C° 0 mm 5 m/s 742 mmHg 81%
    14:00 +10°C° 0 mm 5 m/s 741 mmHg 78%
    15:00 +9°C° 0 mm 5 m/s 741 mmHg 81%
    16:00 +8°C° 0 mm 5 m/s 740 mmHg 84%
    17:00 +7°C° 0 mm 5 m/s 740 mmHg 87%
    18:00 +7°C° 0 mm 5 m/s 740 mmHg 88%
    19:00 +7°C° 0 mm 5 m/s 740 mmHg 89%
    20:00 +7°C° 0 mm 5 m/s 739 mmHg 90%
    21:00 +6°C° 0 mm 4 m/s 739 mmHg 90%
    22:00 +6°C° 0 mm 4 m/s 739 mmHg 90%
    23:00 +6°C° 0 mm 4 m/s 739 mmHg 90%

    25 Janeiro, Sexta-feira

    Tempo Temperatura Precipitação Vento Pressão Humidade
    00:00 +7°C° 0 mm 3 m/s 739 mmHg 90%
    01:00 +7°C° 0 mm 2 m/s 738 mmHg 91%
    02:00 +7°C° 0 mm 2 m/s 738 mmHg 91%
    03:00 +7°C° 0.4 mm 2 m/s 738 mmHg 93%
    04:00 +7°C° 0.4 mm 2 m/s 738 mmHg 94%
    05:00 +7°C° 0.4 mm 2 m/s 738 mmHg 96%
    06:00 +7°C° 0.5 mm 2 m/s 738 mmHg 96%
    07:00 +7°C° 0.5 mm 3 m/s 738 mmHg 97%
    08:00 +7°C° 0.5 mm 3 m/s 738 mmHg 97%
    09:00 +8°C° 0.3 mm 3 m/s 739 mmHg 95%
    10:00 +8°C° 0.3 mm 3 m/s 739 mmHg 93%
    11:00 +9°C° 0.3 mm 3 m/s 739 mmHg 91%
    12:00 +10°C° 0 mm 3 m/s 739 mmHg 83%
    13:00 +11°C° 0 mm 3 m/s 739 mmHg 76%
    14:00 +12°C° 0 mm 4 m/s 739 mmHg 68%
    15:00 +11°C° 0.1 mm 3 m/s 739 mmHg 72%
    16:00 +10°C° 0.1 mm 3 m/s 739 mmHg 77%
    17:00 +9°C° 0.1 mm 3 m/s 739 mmHg 81%
    18:00 +9°C° 0.3 mm 2 m/s 739 mmHg 83%
    19:00 +8°C° 0.3 mm 2 m/s 739 mmHg 85%
    20:00 +9°C° 0.3 mm 1 m/s 740 mmHg 87%
    21:00 +8°C° 0.1 mm 2 m/s 740 mmHg 88%
    22:00 +7°C° 0.1 mm 2 m/s 740 mmHg 89%
    23:00 +7°C° 0.1 mm 2 m/s 740 mmHg 90%
    Mostrar mais